Content
SEND FEEDBACK

Daily
Averages
Monthly
Summary
United States of America

UMATAC, GUAM


Home > North America > United States > Guam
Elevation: 58 meters     Latitude: 13 17N     Longitude: 144 40E

WEATHER
 
SELECT A DAY
Number of Records: 356,611;   Date Range: 1/1/95 - 12/19/14
 
SHARE

PRINT THIS DATA

[ ← Previous Day ]
WEATHER ALMANAC - 23 MARCH, 2013
[ Next Day → ]
[ °F ]   °C
Weather ElementAverageHighLow
Temperature25.7 °C29 °C (11:23 am)23 °C (11:41 pm)
Dewpoint23 °C24 °C (11:23 am)22 °C (5:10 am)
Humidity85.3 %100 % (11:54 pm)70 % (11:44 am)
Barometer1011.5 hPa1012.9 hPa (10:55 pm)1008.8 hPa (3:55 pm)
Wind Speed20.1 km/h33.3 km/h (11:33 pm)
Wind Gust42.6 km/h (11:27 pm)
Weather ElementAverage
Visibility13.5 km
Wind DirectionENE (62.6 °)

Weather ElementTotal
Precipitation---
Cooling Degree Days7.7 (Base 18.3)
Growing Degree Days16 (Base 10)
Averaged from 98 records on 23 March, 2013
WEATHER CONDITIONS BREAKOUT
WIND DIRECTION BREAKOUT
WEATHER BY HOUR - 23 MARCH, 2013
[ °F ]   °C
Local TimeTemperatureDewpointHumidityBarometerVisibilityWind DirectionWind SpeedGust SpeedPrecipitationEventsConditions
12:55 AM25.2 °C23.3 °C89 %1011.9 hPa16.1 kmNE (40°)20.4 km/hMostly Cloudy
12:56 AM25 °C23 °C89 %1011.9 hPa16.1 kmNE (40°)18.5 km/hMostly Cloudy
12:58 AM25 °C23 °C89 %1011.9 hPa16.1 kmNE (40°)20.4 km/hMostly Cloudy
12:59 AM25 °C23 °C89 %1011.9 hPa16.1 kmNE (40°)20.4 km/hMostly Cloudy
1:09 AM25 °C23 °C89 %1011.9 hPa16.1 kmNE (40°)25.9 km/hMostly Cloudy
1:17 AM25 °C23 °C89 %1011.9 hPa16.1 kmNE (40°)24.1 km/hMostly Cloudy
1:23 AM25 °C23 °C89 %1011.5 hPa16.1 kmNE (40°)24.1 km/hMostly Cloudy
1:24 AM25 °C23 °C89 %1011.5 hPa16.1 kmNE (40°)22.2 km/hScattered Clouds
1:55 AM25.2 °C23.1 °C88 %1011.2 hPa16.1 kmNE (50°)20.4 km/hScattered Clouds
1:59 AM25 °C23 °C89 %1011.2 hPa16.1 kmNE (50°)25.9 km/hMostly Cloudy
2:02 AM25 °C23 °C89 %1011.2 hPa16.1 kmNE (50°)25.9 km/hRainLight Rain
2:04 AM25 °C23 °C89 %1011.2 hPa16.1 kmNE (50°)25.9 km/hRainLight Rain
2:08 AM25 °C23 °C89 %1011.2 hPa16.1 kmNE (50°)22.2 km/hRainLight Rain
2:12 AM25 °C23 °C89 %1011.2 hPa16.1 kmNE (50°)22.2 km/hMostly Cloudy
2:14 AM25 °C23 °C89 %1011.2 hPa16.1 kmNE (50°)22.2 km/hMostly Cloudy
2:16 AM25 °C23 °C89 %1011.2 hPa16.1 kmNE (50°)24.1 km/hMostly Cloudy
2:19 AM25 °C23 °C89 %1011.2 hPa14.5 kmNE (50°)22.2 km/hRainLight Rain
2:23 AM25 °C23 °C89 %1011.2 hPa14.5 kmNE (40°)25.9 km/hRainLight Rain
2:31 AM25 °C23 °C89 %1010.8 hPa16.1 kmNE (50°)25.9 km/hMostly Cloudy
2:52 AM25 °C23 °C89 %1010.8 hPa16.1 kmNE (50°)25.9 km/hMostly Cloudy
2:53 AM25 °C23 °C89 %1010.8 hPa16.1 kmNE (50°)22.2 km/hMostly Cloudy
2:55 AM25 °C23 °C89 %1010.8 hPa16.1 kmNE (50°)22.2 km/hMostly Cloudy
3:09 AM25 °C23 °C89 %1010.8 hPa16.1 kmNE (50°)22.2 km/hScattered Clouds
3:26 AM25 °C23 °C89 %1010.5 hPa16.1 kmNE (50°)24.1 km/hMostly Cloudy
3:55 AM25 °C22.6 °C86 %1010.8 hPa16.1 kmNE (50°)24.1 km/hOvercast
4:05 AM25 °C23 °C89 %1010.5 hPa16.1 kmNE (50°)22.2 km/hMostly Cloudy
4:55 AM25 °C22.1 °C84 %1010.8 hPa16.1 kmNE (50°)22.2 km/hPartly Cloudy
5:10 AM25 °C22 °C83 %1010.8 hPa16.1 kmNE (50°)20.4 km/hMostly Cloudy
5:29 AM25 °C22 °C83 %1010.8 hPa16.1 kmNE (50°)20.4 km/hScattered Clouds
5:55 AM24.9 °C22.5 °C86 %1011.2 hPa16.1 kmENE (60°)18.5 km/hScattered Clouds
6:55 AM25.2 °C22.2 °C83 %1011.5 hPa16.1 kmNE (50°)18.5 km/hPartly Cloudy
7:45 AM26 °C23 °C83 %1012.2 hPa16.1 kmNE (50°)20.4 km/hMostly Cloudy
7:49 AM26 °C23 °C83 %1012.2 hPa16.1 kmENE (60°)24.1 km/hMostly Cloudy
7:55 AM26.4 °C22.4 °C79 %1012.2 hPa16.1 kmENE (60°)18.5 km/hScattered Clouds
8:55 AM27.4 °C22.3 °C74 %1012.5 hPa16.1 kmENE (60°)24.1 km/hPartly Cloudy
9:55 AM28 °C22.8 °C73 %1012.5 hPa16.1 kmENE (60°)22.2 km/hScattered Clouds
10:14 AM28 °C23 °C74 %1012.5 hPa16.1 kmNE (40°)22.2 km/hMostly Cloudy
10:28 AM28 °C23 °C74 %1012.5 hPa16.1 kmENE (70°)22.2 km/hScattered Clouds
10:55 AM28.7 °C23.2 °C72 %1012.2 hPa16.1 kmENE (60°)20.4 km/h29.6 km/hPartly Cloudy
11:23 AM29 °C24 °C74 %1011.9 hPa16.1 kmENE (60°)24.1 km/hMostly Cloudy
11:35 AM28 °C23 °C74 %1011.5 hPa16.1 kmENE (60°)20.4 km/hScattered Clouds
11:44 AM29 °C23 °C70 %1011.5 hPa16.1 kmNE (50°)20.4 km/hMostly Cloudy
11:55 AM28.8 °C23.7 °C74 %1011.2 hPa16.1 kmENE (60°)22.2 km/hMostly Cloudy
12:52 PM29 °C24 °C74 %1010.5 hPa16.1 kmENE (70°)24.1 km/hScattered Clouds
12:53 PM29 °C24 °C74 %1010.5 hPa16.1 kmEast (80°)25.9 km/hMostly Cloudy
12:55 PM28.9 °C23.7 °C73 %1010.5 hPa16.1 kmENE (70°)25.9 km/hMostly Cloudy
12:57 PM29 °C24 °C74 %1010.5 hPa16.1 kmENE (60°)22.2 km/hScattered Clouds
1:55 PM29 °C23.4 °C72 %1009.8 hPa16.1 kmENE (70°)20.4 km/hClear
2:55 PM28.5 °C22.7 °C71 %1009.1 hPa16.1 kmENE (60°)20.4 km/hPartly Cloudy
3:55 PM28.7 °C23.2 °C72 %1008.8 hPa16.1 kmNE (50°)20.4 km/hScattered Clouds
4:01 PM28 °C23 °C74 %1008.8 hPa16.1 kmNE (50°)20.4 km/hMostly Cloudy
4:27 PM28 °C23 °C74 %1009.1 hPa16.1 kmNE (50°)20.4 km/hScattered Clouds
4:46 PM28 °C23 °C74 %1009.1 hPa16.1 kmENE (70°)16.7 km/hMostly Cloudy
4:55 PM27.1 °C23.1 °C79 %1009.5 hPa16.1 kmENE (60°)16.7 km/hMostly Cloudy
5:11 PM27 °C23 °C79 %1009.5 hPa16.1 kmENE (70°)18.5 km/hScattered Clouds
5:12 PM27 °C23 °C79 %1009.5 hPa16.1 kmENE (70°)18.5 km/hMostly Cloudy
5:18 PM27 °C23 °C79 %1009.5 hPa16.1 kmENE (60°)18.5 km/hScattered Clouds
5:48 PM27 °C23 °C79 %1009.8 hPa16.1 kmENE (60°)20.4 km/hMostly Cloudy
5:50 PM27 °C23 °C79 %1009.8 hPa16.1 kmENE (60°)20.4 km/hScattered Clouds
5:55 PM26.4 °C22.8 °C80 %1009.8 hPa16.1 kmENE (60°)18.5 km/hScattered Clouds
6:29 PM26 °C23 °C83 %1010.2 hPa16.1 kmENE (60°)20.4 km/hMostly Cloudy
6:40 PM26 °C23 °C83 %1010.2 hPa16.1 kmENE (60°)18.5 km/hMostly Cloudy
6:43 PM26 °C23 °C83 %1010.2 hPa16.1 kmENE (60°)18.5 km/hMostly Cloudy
6:55 PM25.7 °C23.4 °C87 %1010.5 hPa16.1 kmENE (60°)18.5 km/hMostly Cloudy
7:55 PM25.5 °C22.6 °C84 %1011.2 hPa16.1 kmENE (70°)14.8 km/hClear
8:55 PM25.2 °C23.5 °C90 %1011.9 hPa16.1 kmENE (60°)14.8 km/hClear
9:24 PM26 °C24 °C89 %1012.2 hPa16.1 kmENE (60°)18.5 km/hMostly Cloudy
9:26 PM26 °C24 °C89 %1012.2 hPa16.1 kmENE (60°)18.5 km/hScattered Clouds
9:55 PM25.4 °C23.4 °C89 %1012.5 hPa16.1 kmENE (60°)14.8 km/hPartly Cloudy
10:33 PM26 °C24 °C89 %1012.5 hPa16.1 kmENE (60°)14.8 km/hMostly Cloudy
10:41 PM26 °C24 °C89 %1012.5 hPa16.1 kmENE (60°)13 km/hMostly Cloudy
10:49 PM26 °C24 °C89 %1012.5 hPa16.1 kmENE (60°)20.4 km/hOvercast
10:55 PM25.9 °C23.7 °C88 %1012.9 hPa16.1 kmENE (60°)18.5 km/hOvercast
10:57 PM26 °C24 °C89 %1012.9 hPa16.1 kmENE (60°)16.7 km/hOvercast
11:12 PM26 °C24 °C89 %1012.9 hPa16.1 kmENE (60°)18.5 km/hMostly Cloudy
11:15 PM26 °C24 °C89 %1012.5 hPa16.1 kmENE (60°)16.7 km/hMostly Cloudy
11:20 PM26 °C24 °C89 %1012.5 hPa16.1 kmNE (50°)14.8 km/hMostly Cloudy
11:21 PM26 °C24 °C89 %1012.5 hPa16.1 kmNE (50°)14.8 km/hMostly Cloudy
11:27 PM26 °C23 °C83 %1012.9 hPa14.5 kmEast (80°)29.6 km/h42.6 km/hMostly Cloudy
11:29 PM26 °C23 °C83 %1012.9 hPa8 kmEast (90°)22.2 km/h42.6 km/hRainLight Rain
11:33 PM25 °C23 °C89 %1012.5 hPa4 kmEast (100°)33.3 km/h42.6 km/hRainLight Rain
11:35 PM24 °C23 °C94 %1012.9 hPa3.2 kmEast (100°)27.8 km/h42.6 km/hRainLight Rain
11:36 PM24 °C23 °C94 %1012.9 hPa2.4 kmEast (90°)29.6 km/h42.6 km/hRainLight Rain
11:37 PM24 °C23 °C94 %1012.9 hPa2.4 kmEast (90°)31.5 km/h42.6 km/hRainHeavy Rain
11:38 PM24 °C22 °C89 %1012.9 hPa1.9 kmEast (90°)27.8 km/h42.6 km/hRainHeavy Rain
11:41 PM23 °C22 °C94 %1012.9 hPa1.6 kmEast (100°)20.4 km/h42.6 km/hRainHeavy Rain
11:42 PM23 °C22 °C94 %1012.9 hPa1.6 kmEast (90°)18.5 km/h42.6 km/hRainHeavy Rain
11:43 PM23 °C22 °C94 %1012.9 hPa1.6 kmEast (90°)18.5 km/hRainHeavy Rain
11:45 PM23 °C22 °C94 %1012.9 hPa1.6 kmEast (90°)18.5 km/hRainHeavy Rain
11:47 PM23 °C22 °C94 %1012.9 hPa1.6 kmEast (80°)14.8 km/hRainHeavy Rain
11:49 PM23 °C22 °C94 %1012.9 hPa1.9 kmENE (70°)9.3 km/hRainHeavy Rain
11:50 PM23 °C22 °C94 %1012.9 hPa1.9 kmEast (80°)9.3 km/hRainHeavy Rain
11:51 PM23 °C22 °C94 %1012.9 hPa2.4 kmEast (80°)9.3 km/hRainHeavy Rain
11:52 PM23 °C22 °C94 %1012.9 hPa2.4 kmEast (90°)7.4 km/hRainHeavy Rain
11:54 PM23 °C23 °C100 %1012.9 hPa3.2 kmEast (100°)9.3 km/hRainRain
11:55 PM23.2 °C22.5 °C96 %1012.9 hPa3.2 kmEast (100°)9.3 km/h0 mmRainRain
11:56 PM23 °C23 °C100 %1012.5 hPa4 kmESE (110°)7.4 km/hRainRain
11:57 PM23 °C23 °C100 %1012.5 hPa4.8 kmESE (110°)5.6 km/hRainLight Rain
Hourly data recorded from PGUA, located 0 kilometers away from Umatac, Guam







STORIES FROM OUR PARTNERS